Weather History for KLKR - April, 2014

Change the Weather History Date:

Sunday, April 27, 2014

  Actual Average (KUZA) Record (KUZA)
Temperature  
Mean Temperature 65 °F -  
Max Temperature 84 °F 76 °F 90 °F (1981)
Min Temperature 46 °F 51 °F 40 °F (1953)
Growing Degree Days 15 (Base 50)    
Moisture  
Dew Point 55 °F    
Average Humidity 73    
Maximum Humidity 100    
Minimum Humidity 30    
Precipitation  
Precipitation 0.00 in - - ()
Sea Level Pressure  
Sea Level Pressure 29.98 in    
Wind  
Wind Speed 1 mph (SW)    
Max Wind Speed 8 mph    
Max Gust Speed -    
Visibility 10 miles    
Events      
Averages and records for this station are not official NWS values.
T = Trace of Precipitation, MM = Missing Value Source: NWS Daily Summary

Daily Weather History Graph

Daily Weather History Graph

Search for Another Location

Airport or City:

Trip Planner

Search our weather history database for the weather conditions in past years. The results will help you decide how hot, cold, wet, or windy it might be!

Date:

Astronomy

Apr. 27, 2014 Rise Set
Actual Time 6:37 AM EDT 8:05 PM EDT
Civil Twilight 6:10 AM EDT 8:31 PM EDT
Nautical Twilight 5:38 AM EDT 9:04 PM EDT
Astronomical Twilight 5:05 AM EDT 9:37 PM EDT
Moon 5:32 AM EDT (4/27) 6:40 PM EDT (4/27)
Length of Visible Light 14h 21m
Length of Day
13h 27m
Waning Crescent, 3% of the Moon is Illuminated
Apr 27
Waning Crescent
Apr 29
New
May 6
First Quarter
May 14
Full
May 21
Last Quarter

Hourly Weather History & Observations

Time (EDT) Temp. Heat Index Dew Point Humidity Pressure Visibility Wind Dir Wind Speed Gust Speed Precip Events Conditions
12:15 AM 51.8 °F - 51.8 °F 100% 29.99 in 10.0 mi Calm Calm - N/A   Clear
12:35 AM 51.8 °F - 51.8 °F 100% 29.99 in 10.0 mi Calm Calm - N/A   Clear
12:55 AM 51.8 °F - 51.8 °F 100% 29.99 in 10.0 mi Calm Calm - N/A   Clear
1:15 AM 51.8 °F - 51.8 °F 100% 29.99 in 10.0 mi Calm Calm - N/A   Clear
1:35 AM 51.8 °F - 51.8 °F 100% 29.99 in 10.0 mi Calm Calm - N/A   Clear
1:55 AM 50.0 °F - 50.0 °F 100% 29.99 in 10.0 mi Calm Calm - N/A   Clear
2:15 AM 50.0 °F - 50.0 °F 100% 29.98 in 10.0 mi Calm Calm - N/A   Clear
2:35 AM 50.0 °F - 50.0 °F 100% 29.98 in 10.0 mi Calm Calm - N/A   Clear
2:55 AM 50.0 °F - 50.0 °F 100% 29.98 in 10.0 mi Calm Calm - N/A   Clear
3:15 AM 50.0 °F - 50.0 °F 100% 29.97 in 10.0 mi Calm Calm - N/A   Clear
3:35 AM 50.0 °F - 50.0 °F 100% 29.97 in 10.0 mi Calm Calm - N/A   Clear
4:15 AM 48.2 °F - 48.2 °F 100% 29.98 in 10.0 mi Calm Calm - N/A   Clear
4:35 AM 48.2 °F - 48.2 °F 100% 29.98 in 10.0 mi Calm Calm - N/A   Clear
5:15 AM 48.2 °F - 48.2 °F 100% 29.98 in 10.0 mi Calm Calm - N/A   Clear
5:35 AM 48.2 °F - 48.2 °F 100% 29.99 in 10.0 mi Calm Calm - N/A   Clear
5:55 AM 48.2 °F - 48.2 °F 100% 29.99 in 10.0 mi Calm Calm - N/A   Clear
6:15 AM 46.4 °F - 46.4 °F 100% 30.00 in 10.0 mi Calm Calm - N/A   Clear
6:35 AM 46.4 °F - 46.4 °F 100% 30.00 in 10.0 mi Calm Calm - N/A   Clear
6:55 AM 46.4 °F - 46.4 °F 100% 30.01 in 9.0 mi Calm Calm - N/A   Clear
7:15 AM 48.2 °F - 48.2 °F 100% 30.01 in 10.0 mi Calm Calm - N/A   Clear
7:35 AM 48.2 °F - 48.2 °F 100% 30.02 in 10.0 mi Calm Calm - N/A   Clear
7:55 AM 53.6 °F - 53.6 °F 100% 30.02 in 10.0 mi Calm Calm - N/A   Clear
8:15 AM 55.4 °F - 55.4 °F 100% 30.03 in 10.0 mi Calm Calm - N/A   Clear
8:35 AM 59.0 °F - 57.2 °F 94% 30.04 in 10.0 mi WSW 3.5 mph - N/A   Clear
8:55 AM 62.6 °F - 57.2 °F 82% 30.04 in 10.0 mi Calm Calm - N/A   Clear
9:15 AM 64.4 °F - 59.0 °F 83% 30.04 in 10.0 mi WSW 4.6 mph - N/A   Clear
9:35 AM 66.2 °F - 59.0 °F 78% 30.03 in 10.0 mi SW 5.8 mph - N/A   Clear
9:55 AM 68.0 °F - 59.0 °F 73% 30.04 in 10.0 mi SW 5.8 mph - N/A   Clear
10:15 AM 71.6 °F - 57.2 °F 60% 30.03 in 10.0 mi WSW 3.5 mph - N/A   Clear
10:35 AM 73.4 °F - 57.2 °F 57% 30.03 in 10.0 mi Calm Calm - N/A   Clear
10:55 AM 75.2 °F - 57.2 °F 53% 30.04 in 10.0 mi WSW 3.5 mph - N/A   Clear
11:15 AM 75.2 °F - 57.2 °F 53% 30.03 in 10.0 mi Calm Calm - N/A   Clear
11:35 AM 77.0 °F - 57.2 °F 50% 30.03 in 10.0 mi SW 3.5 mph - N/A   Clear
11:55 AM 77.0 °F - 57.2 °F 50% 30.02 in 10.0 mi Calm Calm - N/A   Clear
12:15 PM 78.8 °F - 55.4 °F 44% 30.02 in 10.0 mi Calm Calm - N/A   Clear
12:35 PM 80.6 °F 80.5 °F 55.4 °F 42% 30.00 in 10.0 mi WSW 5.8 mph - N/A   Clear
12:55 PM 82.4 °F - 51.8 °F 35% 30.00 in 10.0 mi NW 5.8 mph - N/A   Clear
1:15 PM 82.4 °F 81.4 °F 53.6 °F 37% 29.99 in 10.0 mi Calm Calm - N/A   Clear
1:35 PM 82.4 °F - 51.8 °F 35% 29.98 in 10.0 mi SSW 3.5 mph - N/A   Clear
1:55 PM 82.4 °F 81.4 °F 53.6 °F 37% 29.98 in 10.0 mi SSE 4.6 mph - N/A   Clear
2:15 PM 82.4 °F 81.4 °F 53.6 °F 37% 29.97 in 10.0 mi South 4.6 mph - N/A   Clear
2:35 PM 84.2 °F 82.8 °F 53.6 °F 35% 29.97 in 10.0 mi WSW 5.8 mph - N/A   Clear
2:55 PM 82.4 °F 81.4 °F 53.6 °F 37% 29.96 in 10.0 mi West 8.1 mph - N/A   Clear
3:15 PM 82.4 °F 81.7 °F 55.4 °F 39% 29.95 in 10.0 mi SW 6.9 mph - N/A   Clear
3:35 PM 82.4 °F 81.4 °F 53.6 °F 37% 29.95 in 10.0 mi WSW 6.9 mph - N/A   Clear
3:55 PM 82.4 °F - 51.8 °F 35% 29.93 in 10.0 mi South 3.5 mph - N/A   Clear
4:15 PM 84.2 °F - 51.8 °F 33% 29.93 in 10.0 mi South 3.5 mph - N/A   Clear
4:35 PM 82.4 °F 81.4 °F 53.6 °F 37% 29.92 in 10.0 mi SSE 4.6 mph - N/A   Clear
4:55 PM 84.2 °F 82.8 °F 53.6 °F 35% 29.92 in 10.0 mi SSE 4.6 mph - N/A   Clear
5:15 PM 84.2 °F 82.8 °F 53.6 °F 35% 29.92 in 10.0 mi SSW 4.6 mph - N/A   Clear
5:35 PM 82.4 °F - 48.2 °F 30% 29.92 in 10.0 mi SSW 4.6 mph - N/A   Clear
6:15 PM 80.6 °F - 51.8 °F 37% 29.93 in 10.0 mi Calm Calm - N/A   Clear
6:35 PM 78.8 °F - 53.6 °F 42% 29.93 in 10.0 mi Calm Calm - N/A   Clear
6:55 PM 80.6 °F 81.1 °F 59.0 °F 48% 29.94 in 10.0 mi Calm Calm - N/A   Clear
7:15 PM 77.0 °F - 62.6 °F 61% 29.93 in 10.0 mi Calm Calm - N/A   Clear
7:35 PM 75.2 °F - 60.8 °F 61% 29.94 in 10.0 mi Calm Calm - N/A   Clear
7:55 PM 71.6 °F - 62.6 °F 73% 29.93 in 10.0 mi Calm Calm - N/A   Clear
8:15 PM 68.0 °F - 64.4 °F 88% 29.93 in 10.0 mi Calm Calm - N/A   Clear
8:35 PM 68.0 °F - 64.4 °F 88% 29.94 in 10.0 mi Calm Calm - N/A   Clear
8:55 PM 66.2 °F - 64.4 °F 94% 29.94 in 10.0 mi Calm Calm - N/A   Clear
9:15 PM 66.2 °F - 64.4 °F 94% 29.95 in 10.0 mi Calm Calm - N/A   Clear
9:35 PM 64.4 °F - 62.6 °F 94% 29.95 in 10.0 mi Calm Calm - N/A   Clear
9:55 PM 64.4 °F - 62.6 °F 94% 29.95 in 10.0 mi Calm Calm - N/A   Clear
10:15 PM 64.4 °F - 62.6 °F 94% 29.96 in 10.0 mi Calm Calm - N/A   Clear
10:35 PM 64.4 °F - 62.6 °F 94% 29.96 in 10.0 mi Calm Calm - N/A   Clear
10:55 PM 64.4 °F - 62.6 °F 94% 29.96 in 10.0 mi Calm Calm - N/A   Clear
11:15 PM 64.4 °F - 62.6 °F 94% 29.96 in 10.0 mi Calm Calm - N/A   Clear
11:55 PM 64.4 °F - 62.6 °F 94% 29.96 in 10.0 mi Calm Calm - N/A   Clear